project_name,platform_name,Date_(yyyymmdd),Time_(hh24miss),beacon_ID,latitude_DD,longitude_DD,altitude_m,altitude_result_value_type,speed_m_s,speed_result_value_type,direction_degrees,direction_result_value_type,fix,sat
BaySys,Amundsen,2007-12-07,20:24:05,300034012024220,71.2511,-124.9362,28.9488,Actual,,Calculated,233.4800,Calculated,1,5
BaySys,Amundsen,2007-12-07,20:38:05,300034012024220,71.2515,-124.9364,42.3560,Actual,,Calculated,172.4700,Calculated,1,8
BaySys,Amundsen,2007-12-07,22:37:31,300034012024220,71.2512,-124.9375,3.6909,Actual,,Calculated,270.7300,Calculated,1,6
BaySys,Amundsen,2007-12-08,00:37:12,300034012024220,71.2514,-124.9389,5.9080,Actual,,Calculated,116.2100,Calculated,1,6
BaySys,Amundsen,2007-12-08,02:37:53,300034012024220,71.2520,-124.9425,2.6947,Actual,,Calculated,339.0100,Calculated,1,7
BaySys,Amundsen,2007-12-08,04:37:13,300034012024220,71.2534,-124.9543,-0.8098,Actual,,Calculated,347.9900,Calculated,1,6
BaySys,Amundsen,2007-12-08,06:37:39,300034012024220,71.2550,-124.9702,-4.3201,Actual,,Calculated,268.9500,Calculated,1,5
BaySys,Amundsen,2007-12-08,08:38:05,300034012024220,71.2570,-124.9834,1.3634,Actual,,Calculated,164.1500,Calculated,1,8
BaySys,Amundsen,2007-12-08,10:37:49,300034012024220,71.2594,-124.9931,0.1563,Actual,,Calculated,248.6800,Calculated,1,5
BaySys,Amundsen,2007-12-08,12:37:30,300034012024220,71.2619,-125.0023,-7.2473,Actual,,Calculated,355.6200,Calculated,1,7
BaySys,Amundsen,2007-12-08,14:37:25,300034012024220,71.2649,-125.0156,-12.0043,Actual,,Calculated,248.9900,Calculated,1,7
BaySys,Amundsen,2007-12-08,16:37:29,300034012024220,71.2686,-125.0351,-1.1455,Actual,,Calculated,232.8000,Calculated,1,7
BaySys,Amundsen,2007-12-08,18:38:05,300034012024220,71.2718,-125.0566,-2.1624,Actual,,Calculated,179.7600,Calculated,1,8
BaySys,Amundsen,2007-12-08,20:38:03,300034012024220,71.2738,-125.0740,21.7998,Actual,,Calculated,263.1400,Calculated,1,7
BaySys,Amundsen,2007-12-08,22:37:33,300034012024220,71.2748,-125.0846,-9.5163,Actual,,Calculated,310.1400,Calculated,1,9
BaySys,Amundsen,2007-12-09,00:38:05,300034012024220,71.2753,-125.0924,-7.8137,Actual,,Calculated,89.9500,Calculated,1,8
BaySys,Amundsen,2007-12-09,02:38:05,300034012024220,71.2763,-125.1043,3.0579,Actual,,Calculated,290.0800,Calculated,1,9
BaySys,Amundsen,2007-12-09,04:37:38,300034012024220,71.2785,-125.1221,-2.1388,Actual,,Calculated,306.9200,Calculated,1,6
BaySys,Amundsen,2007-12-09,06:38:16,300034012024220,71.2808,-125.1425,-21.5518,Actual,,Calculated,303.6900,Calculated,1,10
BaySys,Amundsen,2007-12-09,08:37:47,300034012024220,71.2828,-125.1580,-34.9260,Actual,,Calculated,305.3300,Calculated,1,6
BaySys,Amundsen,2007-12-09,10:38:23,300034012024220,71.2836,-125.1697,-3.1347,Actual,,Calculated,285.8700,Calculated,1,11
BaySys,Amundsen,2007-12-09,12:37:52,300034012024220,71.2841,-125.1785,-4.8034,Actual,,Calculated,303.0000,Calculated,1,8
BaySys,Amundsen,2007-12-09,14:38:29,300034012024220,71.2843,-125.1893,-3.0396,Actual,,Calculated,301.0700,Calculated,1,8
BaySys,Amundsen,2007-12-09,16:37:57,300034012024220,71.2850,-125.2032,2.4796,Actual,,Calculated,326.9900,Calculated,1,7
BaySys,Amundsen,2007-12-09,18:38:16,300034012024220,71.2844,-125.2162,-5.7438,Actual,,Calculated,280.2800,Calculated,1,10
BaySys,Amundsen,2007-12-09,20:37:58,300034012024220,71.2816,-125.2256,-4.8666,Actual,,Calculated,228.7300,Calculated,1,8
BaySys,Amundsen,2007-12-09,22:38:35,300034012024220,71.2771,-125.2281,-3.6705,Actual,,Calculated,82.4000,Calculated,1,10
BaySys,Amundsen,2007-12-10,00:38:07,300034012024220,71.2732,-125.2273,0.9466,Actual,,Calculated,151.1400,Calculated,1,10
BaySys,Amundsen,2007-12-10,02:38:35,300034012024220,71.2690,-125.2301,-2.1599,Actual,,Calculated,198.1500,Calculated,1,9
BaySys,Amundsen,2007-12-10,04:38:11,300034012024220,71.2686,-125.2366,253.0760,Actual,,Calculated,341.0400,Calculated,1,8
BaySys,Amundsen,2007-12-10,06:38:13,300034012024220,71.2671,-125.2426,-9.9709,Actual,,Calculated,211.1900,Calculated,1,8
BaySys,Amundsen,2007-12-10,08:38:53,300034012024220,71.2664,-125.2478,-4.5833,Actual,,Calculated,164.9600,Calculated,1,8
BaySys,Amundsen,2007-12-10,10:38:16,300034012024220,71.2661,-125.2499,-4.5107,Actual,,Calculated,317.7600,Calculated,1,5
BaySys,Amundsen,2007-12-10,12:38:20,300034012024220,71.2656,-125.2529,-1.4005,Actual,,Calculated,39.2700,Calculated,1,8
BaySys,Amundsen,2007-12-10,14:38:35,300034012024220,71.2653,-125.2562,-2.1012,Actual,,Calculated,20.0400,Calculated,1,9
BaySys,Amundsen,2007-12-10,16:38:42,300034012024220,71.2646,-125.2652,-8.1880,Actual,,Calculated,275.0400,Calculated,1,9
BaySys,Amundsen,2007-12-10,18:38:28,300034012024220,71.2633,-125.2777,-1.1097,Actual,,Calculated,218.7900,Calculated,1,7
BaySys,Amundsen,2007-12-10,20:38:59,300034012024220,71.2601,-125.2906,-3.9806,Actual,,Calculated,117.0800,Calculated,1,9
BaySys,Amundsen,2007-12-10,22:38:31,300034012024220,71.2571,-125.2993,-13.8635,Actual,,Calculated,200.4900,Calculated,1,7
BaySys,Amundsen,2007-12-11,00:38:30,300034012024220,71.2549,-125.3020,-5.2047,Actual,,Calculated,339.8200,Calculated,1,9
BaySys,Amundsen,2007-12-11,02:39:29,300034012024220,71.2541,-125.3059,-7.8215,Actual,,Calculated,196.3500,Calculated,1,8
BaySys,Amundsen,2007-12-11,04:38:36,300034012024220,71.2533,-125.3136,-40.2035,Actual,,Calculated,198.9000,Calculated,1,9
BaySys,Amundsen,2007-12-11,06:38:38,300034012024220,71.2517,-125.3247,-14.5868,Actual,,Calculated,220.2600,Calculated,1,8
BaySys,Amundsen,2007-12-11,08:39:29,300034012024220,71.2488,-125.3401,-6.0537,Actual,,Calculated,183.1900,Calculated,1,8
BaySys,Amundsen,2007-12-11,10:39:13,300034012024220,71.2459,-125.3543,0.6512,Actual,,Calculated,237.9400,Calculated,1,10
BaySys,Amundsen,2007-12-11,12:38:43,300034012024220,71.2445,-125.3664,16.8745,Actual,,Calculated,351.3100,Calculated,1,7
BaySys,Amundsen,2007-12-11,14:39:23,300034012024220,71.2454,-125.3740,-1.0257,Actual,,Calculated,345.7500,Calculated,1,9
BaySys,Amundsen,2007-12-11,16:39:05,300034012024220,71.2491,-125.3888,-3.3177,Actual,,Calculated,237.7100,Calculated,1,7
BaySys,Amundsen,2007-12-11,18:39:24,300034012024220,71.2553,-125.4134,-4.3448,Actual,,Calculated,300.4400,Calculated,1,11
BaySys,Amundsen,2007-12-11,20:39:03,300034012024220,71.2620,-125.4369,49.4773,Actual,,Calculated,283.8100,Calculated,1,7
BaySys,Amundsen,2007-12-11,22:40:05,300034012024220,71.2684,-125.4552,8.1464,Actual,,Calculated,287.1200,Calculated,1,11
BaySys,Amundsen,2007-12-12,00:39:42,300034012024220,71.2749,-125.4727,34.9501,Actual,,Calculated,341.8700,Calculated,1,10
BaySys,Amundsen,2007-12-12,02:40:05,300034012024220,71.2825,-125.4936,-5.4847,Actual,,Calculated,301.4400,Calculated,1,7
BaySys,Amundsen,2007-12-12,04:40:29,300034012024220,71.2924,-125.5194,2.1801,Actual,,Calculated,336.7100,Calculated,1,8
BaySys,Amundsen,2007-12-12,06:40:29,300034012024220,71.3036,-125.5503,-7.8014,Actual,,Calculated,303.5400,Calculated,1,10
BaySys,Amundsen,2007-12-12,08:40:07,300034012024220,71.3148,-125.5828,12.7851,Actual,,Calculated,313.5900,Calculated,1,8
BaySys,Amundsen,2007-12-12,10:40:29,300034012024220,71.3250,-125.6129,13.4883,Actual,,Calculated,157.6200,Calculated,1,10
BaySys,Amundsen,2007-12-12,12:39:56,300034012024220,71.3350,-125.6372,-5.2269,Actual,,Calculated,354.4100,Calculated,1,8
BaySys,Amundsen,2007-12-12,14:40:35,300034012024220,71.3446,-125.6590,-4.1207,Actual,,Calculated,54.3700,Calculated,1,8
BaySys,Amundsen,2007-12-12,16:40:35,300034012024220,71.3547,-125.6832,-6.9186,Actual,,Calculated,329.5200,Calculated,1,8
BaySys,Amundsen,2007-12-12,18:40:10,300034012024220,71.3665,-125.7137,3.7111,Actual,,Calculated,330.7400,Calculated,1,9
BaySys,Amundsen,2007-12-12,20:40:06,300034012024220,71.3796,-125.7443,-13.9746,Actual,,Calculated,320.4400,Calculated,1,6
BaySys,Amundsen,2007-12-12,22:40:08,300034012024220,71.3902,-125.7696,-18.8472,Actual,,Calculated,321.0500,Calculated,1,9
BaySys,Amundsen,2007-12-13,00:40:18,300034012024220,71.3991,-125.7870,-16.3475,Actual,,Calculated,333.2500,Calculated,1,8
BaySys,Amundsen,2007-12-13,02:40:12,300034012024220,71.4074,-125.8027,-12.6547,Actual,,Calculated,2.4500,Calculated,1,6
BaySys,Amundsen,2007-12-13,04:40:53,300034012024220,71.4151,-125.8238,-6.6573,Actual,,Calculated,312.1800,Calculated,1,8
BaySys,Amundsen,2007-12-13,06:40:15,300034012024220,71.4228,-125.8526,-11.6565,Actual,,Calculated,298.7500,Calculated,1,8
BaySys,Amundsen,2007-12-13,08:40:53,300034012024220,71.4308,-125.8850,-4.0034,Actual,,Calculated,266.2700,Calculated,1,9
BaySys,Amundsen,2007-12-13,10:40:16,300034012024220,71.4377,-125.9137,2.3819,Actual,,Calculated,197.0300,Calculated,1,7
BaySys,Amundsen,2007-12-13,12:40:59,300034012024220,71.4428,-125.9330,2.5998,Actual,,Calculated,310.5800,Calculated,1,10
BaySys,Amundsen,2007-12-13,14:40:44,300034012024220,71.4457,-125.9419,-3.4102,Actual,,Calculated,335.9100,Calculated,1,9
BaySys,Amundsen,2007-12-13,16:40:29,300034012024220,71.4465,-125.9496,-0.8405,Actual,,Calculated,354.4200,Calculated,1,8
BaySys,Amundsen,2007-12-13,18:40:28,300034012024220,71.4469,-125.9596,1.8347,Actual,,Calculated,245.8200,Calculated,1,7
BaySys,Amundsen,2007-12-13,20:41:05,300034012024220,71.4469,-125.9683,-4.6843,Actual,,Calculated,32.4000,Calculated,1,9
BaySys,Amundsen,2007-12-13,22:41:05,300034012024220,71.4465,-125.9740,-9.9472,Actual,,Calculated,348.9600,Calculated,1,10
BaySys,Amundsen,2007-12-14,00:40:42,300034012024220,71.4470,-125.9703,-8.0535,Actual,,Calculated,291.1300,Calculated,1,6
BaySys,Amundsen,2007-12-14,02:40:38,300034012024220,71.4487,-125.9590,0.8224,Actual,,Calculated,17.0700,Calculated,1,8
BaySys,Amundsen,2007-12-14,04:41:05,300034012024220,71.4527,-125.9453,-0.8922,Actual,,Calculated,245.0100,Calculated,1,8
BaySys,Amundsen,2007-12-14,06:40:43,300034012024220,71.4577,-125.9351,-9.6485,Actual,,Calculated,42.9600,Calculated,1,8
BaySys,Amundsen,2007-12-14,08:41:23,300034012024220,71.4559,-125.9247,1.8131,Actual,,Calculated,136.7000,Calculated,1,10
BaySys,Amundsen,2007-12-14,10:40:48,300034012024220,71.4508,-125.9084,-1.1479,Actual,,Calculated,177.7900,Calculated,1,7
BaySys,Amundsen,2007-12-14,12:41:23,300034012024220,71.4447,-125.8970,-3.0168,Actual,,Calculated,146.8600,Calculated,1,11
BaySys,Amundsen,2007-12-14,14:41:05,300034012024220,71.4389,-125.8887,0.2636,Actual,,Calculated,130.3100,Calculated,1,8
BaySys,Amundsen,2007-12-14,16:41:23,300034012024220,71.4342,-125.8855,-8.0381,Actual,,Calculated,320.3600,Calculated,1,8
BaySys,Amundsen,2007-12-14,18:41:24,300034012024220,71.4286,-125.8902,-55.5325,Actual,,Calculated,148.5200,Calculated,1,10
BaySys,Amundsen,2007-12-14,20:40:58,300034012024220,71.4215,-125.9055,20.9585,Actual,,Calculated,296.0000,Calculated,1,9
BaySys,Amundsen,2007-12-14,22:41:35,300034012024220,71.4153,-125.9158,-4.7471,Actual,,Calculated,260.1800,Calculated,1,9
BaySys,Amundsen,2007-12-15,00:41:01,300034012024220,71.4090,-125.9193,-14.8999,Actual,,Calculated,144.7200,Calculated,1,9
BaySys,Amundsen,2007-12-15,02:41:35,300034012024220,71.4027,-125.9200,-0.2662,Actual,,Calculated,293.7300,Calculated,1,7
BaySys,Amundsen,2007-12-15,04:41:20,300034012024220,71.3988,-125.9218,-1.3680,Actual,,Calculated,248.1400,Calculated,1,7
BaySys,Amundsen,2007-12-15,06:41:05,300034012024220,71.3971,-125.9254,-34.6061,Actual,,Calculated,306.7400,Calculated,1,8
BaySys,Amundsen,2007-12-15,08:41:53,300034012024220,71.3960,-125.9311,4.3244,Actual,,Calculated,161.2500,Calculated,1,10
BaySys,Amundsen,2007-12-15,10:41:35,300034012024220,71.3949,-125.9403,-1.7252,Actual,,Calculated,251.8100,Calculated,1,7
BaySys,Amundsen,2007-12-15,12:41:18,300034012024220,71.3930,-125.9515,12.9521,Actual,,Calculated,319.6800,Calculated,1,10
BaySys,Amundsen,2007-12-15,14:41:59,300034012024220,71.3916,-125.9620,-3.0827,Actual,,Calculated,91.1600,Calculated,1,9
BaySys,Amundsen,2007-12-15,16:41:59,300034012024220,71.3915,-125.9708,-15.1568,Actual,,Calculated,9.5200,Calculated,1,8
BaySys,Amundsen,2007-12-15,18:41:24,300034012024220,71.3931,-125.9830,-5.4213,Actual,,Calculated,293.6600,Calculated,1,7
BaySys,Amundsen,2007-12-15,20:41:29,300034012024220,71.3960,-126.0030,7.7610,Actual,,Calculated,268.8300,Calculated,1,8
BaySys,Amundsen,2007-12-15,22:41:59,300034012024220,71.4010,-126.0288,1.8862,Actual,,Calculated,355.7100,Calculated,1,10
BaySys,Amundsen,2007-12-16,00:41:48,300034012024220,71.4071,-126.0557,-8.3946,Actual,,Calculated,316.5600,Calculated,1,9
BaySys,Amundsen,2007-12-16,02:41:30,300034012024220,71.4132,-126.0777,-8.4715,Actual,,Calculated,327.9300,Calculated,1,8
BaySys,Amundsen,2007-12-16,04:42:05,300034012024220,71.4181,-126.0914,5.3958,Actual,,Calculated,325.6600,Calculated,1,8
BaySys,Amundsen,2007-12-16,06:41:40,300034012024220,71.4214,-126.1081,-10.7007,Actual,,Calculated,303.1000,Calculated,1,10
BaySys,Amundsen,2007-12-16,08:42:23,300034012024220,71.4262,-126.1335,-4.8757,Actual,,Calculated,302.3400,Calculated,1,9
BaySys,Amundsen,2007-12-16,10:41:52,300034012024220,71.4317,-126.1585,6.7310,Actual,,Calculated,305.0900,Calculated,1,7
BaySys,Amundsen,2007-12-16,12:41:50,300034012024220,71.4381,-126.1779,5.0393,Actual,,Calculated,24.5200,Calculated,1,11
BaySys,Amundsen,2007-12-16,14:42:05,300034012024220,71.4433,-126.1894,-5.8180,Actual,,Calculated,18.3100,Calculated,1,10
BaySys,Amundsen,2007-12-16,16:41:54,300034012024220,71.4471,-126.1991,-6.5803,Actual,,Calculated,339.4400,Calculated,1,7
BaySys,Amundsen,2007-12-16,18:41:53,300034012024220,71.4505,-126.2088,-8.2964,Actual,,Calculated,309.3500,Calculated,1,7
BaySys,Amundsen,2007-12-16,20:42:35,300034012024220,71.4547,-126.2219,-12.9308,Actual,,Calculated,308.2500,Calculated,1,12
BaySys,Amundsen,2007-12-16,22:42:18,300034012024220,71.4598,-126.2401,-15.5818,Actual,,Calculated,219.0000,Calculated,1,7
BaySys,Amundsen,2007-12-17,00:41:58,300034012024220,71.4649,-126.2588,-6.5679,Actual,,Calculated,273.6000,Calculated,1,9
BaySys,Amundsen,2007-12-17,02:42:35,300034012024220,71.4685,-126.2741,-1.9749,Actual,,Calculated,186.5400,Calculated,1,7
BaySys,Amundsen,2007-12-17,04:42:35,300034012024220,71.4708,-126.2824,-3.2677,Actual,,Calculated,305.4700,Calculated,1,9
BaySys,Amundsen,2007-12-17,06:42:35,300034012024220,71.4725,-126.2897,-12.5928,Actual,,Calculated,316.5500,Calculated,1,11
BaySys,Amundsen,2007-12-17,08:42:36,300034012024220,71.4741,-126.3008,1.6455,Actual,,Calculated,282.6400,Calculated,1,8
BaySys,Amundsen,2007-12-17,10:42:29,300034012024220,71.4765,-126.3189,-3.9736,Actual,,Calculated,314.1600,Calculated,1,6
BaySys,Amundsen,2007-12-17,12:42:35,300034012024220,71.4796,-126.3396,-0.9604,Actual,,Calculated,199.3000,Calculated,1,10
BaySys,Amundsen,2007-12-17,14:42:21,300034012024220,71.4813,-126.3570,-0.0891,Actual,,Calculated,294.7500,Calculated,1,8
BaySys,Amundsen,2007-12-17,16:42:53,300034012024220,71.4811,-126.3686,-0.8935,Actual,,Calculated,317.2100,Calculated,1,8
BaySys,Amundsen,2007-12-17,18:42:24,300034012024220,71.4809,-126.3830,2.6518,Actual,,Calculated,168.4200,Calculated,1,9
BaySys,Amundsen,2007-12-17,20:43:05,300034012024220,71.4814,-126.4002,-9.1047,Actual,,Calculated,344.6800,Calculated,1,12
BaySys,Amundsen,2007-12-17,22:42:48,300034012024220,71.4825,-126.4225,-13.9867,Actual,,Calculated,287.5300,Calculated,1,10
BaySys,Amundsen,2007-12-18,00:42:32,300034012024220,71.4835,-126.4475,-1.9815,Actual,,Calculated,285.1900,Calculated,1,10
BaySys,Amundsen,2007-12-18,02:43:05,300034012024220,71.4846,-126.4751,2.0526,Actual,,Calculated,303.7500,Calculated,1,9
BaySys,Amundsen,2007-12-18,04:43:00,300034012024220,71.4860,-126.5010,-4.9736,Actual,,Calculated,280.7800,Calculated,1,7
BaySys,Amundsen,2007-12-18,06:42:40,300034012024220,71.4875,-126.5268,-13.1779,Actual,,Calculated,300.6000,Calculated,1,9
BaySys,Amundsen,2007-12-18,08:42:36,300034012024220,71.4902,-126.5588,6.0953,Actual,,Calculated,273.6700,Calculated,1,7
BaySys,Amundsen,2007-12-18,10:42:35,300034012024220,71.4946,-126.5992,0.9507,Actual,,Calculated,331.5000,Calculated,1,8
BaySys,Amundsen,2007-12-18,12:43:05,300034012024220,71.5019,-126.6402,-1.1746,Actual,,Calculated,45.8700,Calculated,1,8
BaySys,Amundsen,2007-12-18,14:43:02,300034012024220,71.5110,-126.6724,-15.0908,Actual,,Calculated,267.8300,Calculated,1,9
BaySys,Amundsen,2007-12-18,16:43:29,300034012024220,71.5185,-126.6962,-9.0681,Actual,,Calculated,311.6500,Calculated,1,9
BaySys,Amundsen,2007-12-18,18:43:08,300034012024220,71.5229,-126.7149,-3.8329,Actual,,Calculated,280.5900,Calculated,1,8
BaySys,Amundsen,2007-12-18,20:42:48,300034012024220,71.5263,-126.7360,-5.9092,Actual,,Calculated,289.6800,Calculated,1,10
BaySys,Amundsen,2007-12-18,22:43:35,300034012024220,71.5303,-126.7609,-7.6068,Actual,,Calculated,331.8900,Calculated,1,8
BaySys,Amundsen,2007-12-19,00:42:57,300034012024220,71.5346,-126.7884,-5.7921,Actual,,Calculated,297.7100,Calculated,1,10
BaySys,Amundsen,2007-12-19,02:43:35,300034012024220,71.5383,-126.8152,0.1977,Actual,,Calculated,238.0800,Calculated,1,10
BaySys,Amundsen,2007-12-19,04:43:24,300034012024220,71.5420,-126.8378,-3.8652,Actual,,Calculated,294.9200,Calculated,1,7
BaySys,Amundsen,2007-12-19,06:42:59,300034012024220,71.5446,-126.8570,-11.2503,Actual,,Calculated,285.3500,Calculated,1,8
BaySys,Amundsen,2007-12-19,08:43:35,300034012024220,71.5471,-126.8786,-6.1853,Actual,,Calculated,358.9900,Calculated,1,8
BaySys,Amundsen,2007-12-19,10:43:02,300034012024220,71.5502,-126.9061,-4.2129,Actual,,Calculated,199.1500,Calculated,1,8
BaySys,Amundsen,2007-12-19,12:43:03,300034012024220,71.5549,-126.9423,-3.8100,Actual,,Calculated,285.4700,Calculated,1,9
BaySys,Amundsen,2007-12-19,14:43:35,300034012024220,71.5599,-126.9822,-9.9330,Actual,,Calculated,327.8900,Calculated,1,7
BaySys,Amundsen,2007-12-19,16:43:09,300034012024220,71.5646,-127.0168,-3.3516,Actual,,Calculated,300.2600,Calculated,1,6
BaySys,Amundsen,2007-12-19,18:43:13,300034012024220,71.5679,-127.0452,-4.3358,Actual,,Calculated,259.0200,Calculated,1,8
BaySys,Amundsen,2007-12-19,20:43:15,300034012024220,71.5693,-127.0726,2.5436,Actual,,Calculated,301.3200,Calculated,1,9
BaySys,Amundsen,2007-12-19,22:43:35,300034012024220,71.5698,-127.1025,-9.6672,Actual,,Calculated,357.5200,Calculated,1,8
BaySys,Amundsen,2007-12-20,00:43:23,300034012024220,71.5711,-127.1338,-6.9025,Actual,,Calculated,291.0400,Calculated,1,10
BaySys,Amundsen,2007-12-20,02:43:59,300034012024220,71.5732,-127.1651,2.8014,Actual,,Calculated,245.0900,Calculated,1,9
BaySys,Amundsen,2007-12-20,04:43:48,300034012024220,71.5754,-127.1868,-4.9668,Actual,,Calculated,287.9200,Calculated,1,8
BaySys,Amundsen,2007-12-20,06:43:28,300034012024220,71.5766,-127.2024,1.5469,Actual,,Calculated,164.7100,Calculated,1,9
BaySys,Amundsen,2007-12-20,08:44:05,300034012024220,71.5758,-127.2148,-3.3206,Actual,,Calculated,358.8200,Calculated,1,8
BaySys,Amundsen,2007-12-20,10:43:54,300034012024220,71.5744,-127.2290,-11.6672,Actual,,Calculated,255.8100,Calculated,1,10
BaySys,Amundsen,2007-12-20,12:43:29,300034012024220,71.5735,-127.2492,-4.9921,Actual,,Calculated,334.5300,Calculated,1,8
BaySys,Amundsen,2007-12-20,14:43:34,300034012024220,71.5732,-127.2717,0.8016,Actual,,Calculated,260.8100,Calculated,1,8
BaySys,Amundsen,2007-12-20,16:44:00,300034012024220,71.5740,-127.2889,-2.7243,Actual,,Calculated,173.3600,Calculated,1,5
BaySys,Amundsen,2007-12-20,18:43:31,300034012024220,71.5746,-127.2998,-7.8009,Actual,,Calculated,257.1300,Calculated,1,10
BaySys,Amundsen,2007-12-20,20:43:42,300034012024220,71.5747,-127.3066,20.9282,Actual,,Calculated,18.2400,Calculated,1,9
BaySys,Amundsen,2007-12-20,22:44:05,300034012024220,71.5747,-127.3154,-12.3258,Actual,,Calculated,352.9700,Calculated,1,8
BaySys,Amundsen,2007-12-21,00:44:23,300034012024220,71.5764,-127.3279,-12.5088,Actual,,Calculated,218.6100,Calculated,1,10
BaySys,Amundsen,2007-12-21,02:44:35,300034012024220,71.5798,-127.3448,-3.8155,Actual,,Calculated,236.5500,Calculated,1,10
BaySys,Amundsen,2007-12-21,04:44:23,300034012024220,71.5839,-127.3630,-1.1057,Actual,,Calculated,47.6800,Calculated,1,9
BaySys,Amundsen,2007-12-21,06:43:58,300034012024220,71.5874,-127.3742,-9.4480,Actual,,Calculated,16.2300,Calculated,1,11
BaySys,Amundsen,2007-12-21,08:44:29,300034012024220,71.5892,-127.3826,13.5706,Actual,,Calculated,327.6100,Calculated,1,8
BaySys,Amundsen,2007-12-21,10:44:29,300034012024220,71.5919,-127.3968,-5.9733,Actual,,Calculated,7.1800,Calculated,1,10
BaySys,Amundsen,2007-12-21,12:44:01,300034012024220,71.5978,-127.4209,-5.6088,Actual,,Calculated,280.0600,Calculated,1,8
BaySys,Amundsen,2007-12-21,14:44:35,300034012024220,71.6054,-127.4467,-5.9949,Actual,,Calculated,347.5500,Calculated,1,10
BaySys,Amundsen,2007-12-21,16:44:09,300034012024220,71.6115,-127.4666,-2.1847,Actual,,Calculated,324.7700,Calculated,1,7
BaySys,Amundsen,2007-12-21,18:44:10,300034012024220,71.6151,-127.4789,-4.7117,Actual,,Calculated,4.4400,Calculated,1,9
BaySys,Amundsen,2007-12-21,20:44:06,300034012024220,71.6170,-127.4905,-3.7089,Actual,,Calculated,269.9300,Calculated,1,8
BaySys,Amundsen,2007-12-21,22:44:59,300034012024220,71.6193,-127.5063,-19.5962,Actual,,Calculated,322.3100,Calculated,1,7
BaySys,Amundsen,2007-12-22,00:44:25,300034012024220,71.6225,-127.5263,-5.0699,Actual,,Calculated,300.9700,Calculated,1,7
BaySys,Amundsen,2007-12-22,02:44:53,300034012024220,71.6307,-127.5545,2.7553,Actual,,Calculated,258.3700,Calculated,1,8
BaySys,Amundsen,2007-12-22,04:44:38,300034012024220,71.6414,-127.5874,0.7343,Actual,,Calculated,305.6800,Calculated,1,8
BaySys,Amundsen,2007-12-22,06:44:59,300034012024220,71.6538,-127.6156,-6.5048,Actual,,Calculated,211.0800,Calculated,1,11
BaySys,Amundsen,2007-12-22,08:44:48,300034012024220,71.6663,-127.6371,1.7836,Actual,,Calculated,324.0200,Calculated,1,9
BaySys,Amundsen,2007-12-22,10:44:27,300034012024220,71.6740,-127.6599,-2.1465,Actual,,Calculated,325.6100,Calculated,1,8
BaySys,Amundsen,2007-12-22,12:44:59,300034012024220,71.6807,-127.6944,-3.6608,Actual,,Calculated,170.0900,Calculated,1,12
BaySys,Amundsen,2007-12-22,14:44:50,300034012024220,71.6893,-127.7378,8.8128,Actual,,Calculated,3.2600,Calculated,1,11
BaySys,Amundsen,2007-12-22,16:44:40,300034012024220,71.6980,-127.7840,-10.1871,Actual,,Calculated,309.6100,Calculated,1,7
BaySys,Amundsen,2007-12-22,18:44:36,300034012024220,71.7080,-127.8197,1.6989,Actual,,Calculated,325.5400,Calculated,1,8
BaySys,Amundsen,2007-12-22,20:44:36,300034012024220,71.7113,-127.8422,0.4807,Actual,,Calculated,301.1300,Calculated,1,7
BaySys,Amundsen,2007-12-22,22:45:05,300034012024220,71.7123,-127.8661,-11.5835,Actual,,Calculated,158.5200,Calculated,1,7
BaySys,Amundsen,2007-12-23,00:45:05,300034012024220,71.7130,-127.8934,-1.9180,Actual,,Calculated,239.0500,Calculated,1,11
BaySys,Amundsen,2007-12-23,02:45:05,300034012024220,71.7138,-127.9265,-6.5265,Actual,,Calculated,249.2300,Calculated,1,7
BaySys,Amundsen,2007-12-23,04:44:38,300034012024220,71.7146,-127.9615,-7.5584,Actual,,Calculated,259.3000,Calculated,1,7
BaySys,Amundsen,2007-12-23,06:44:42,300034012024220,71.7154,-127.9981,-10.9892,Actual,,Calculated,277.6400,Calculated,1,9
BaySys,Amundsen,2007-12-23,08:44:46,300034012024220,71.7139,-128.0311,5.1991,Actual,,Calculated,248.9000,Calculated,1,8
BaySys,Amundsen,2007-12-23,10:45:05,300034012024220,71.7121,-128.0643,-4.2924,Actual,,Calculated,260.0100,Calculated,1,6
BaySys,Amundsen,2007-12-23,12:45:01,300034012024220,71.7116,-128.1061,-2.4303,Actual,,Calculated,277.9500,Calculated,1,6
BaySys,Amundsen,2007-12-23,14:44:56,300034012024220,71.7135,-128.1557,-6.5516,Actual,,Calculated,274.2500,Calculated,1,7
BaySys,Amundsen,2007-12-23,16:45:29,300034012024220,71.7169,-128.2064,-4.6113,Actual,,Calculated,286.6700,Calculated,1,8
BaySys,Amundsen,2007-12-23,18:45:29,300034012024220,71.7203,-128.2488,-1.0242,Actual,,Calculated,37.1500,Calculated,1,10
BaySys,Amundsen,2007-12-23,20:45:35,300034012024220,71.7200,-128.2821,-5.0204,Actual,,Calculated,50.7800,Calculated,1,9
BaySys,Amundsen,2007-12-23,22:45:35,300034012024220,71.7157,-128.3133,-20.1734,Actual,,Calculated,286.3500,Calculated,1,5
BaySys,Amundsen,2007-12-24,00:45:03,300034012024220,71.7110,-128.3503,-10.4332,Actual,,Calculated,270.2300,Calculated,1,8